Welcome to the New NWS' Forecast!
Most changes are behind the scenes, but click here for differences you might notice.

Regional Weather Roundup (RWR)

Issued by Gray - Portland, ME (GYX)

                            
000
ASUS41 KGYX 172305
RWRGYX
WEATHER ROUNDUP FOR MAINE AND NEW HAMPSHIRE
NATIONAL WEATHER SERVICE GRAY ME
700 PM EDT WED OCT 17 2018

MEZ002-005-006-010-012-015-018-020-021-024-026-027-029-180000-
MAINE
  
CITY           SKY/WX    TMP DP  RH WIND       PRES   REMARKS
PORTLAND       FAIR      46  41  82 SW9       29.77R                  
SANFORD        LGT RAIN  45  41  86 NW8       29.80R                  
BAR HARBOR     MOCLDY    44  41  89 VRB3      29.70R                  
WISCASSET      FAIR      47  35  63 VRB6      29.75R                  
ROCKLAND       FAIR      46  39  76 W9        29.72R                  
FRYEBURG       FAIR      44  29  55 W13G23    29.78R                  
LEWISTONAUBURN MOCLDY    45  33  63 NW7       29.77R                  
AUGUSTA        FAIR      45  35  68 W9G18     29.74R                  
WATERVILLE     FAIR      44  33  65 W6        29.71R                  
BANGOR         FAIR      42  40  92 SW7       29.69R                  
GREENVILLE       N/A     35  33  92 VRB3G30   29.65R                  
MILLINOCKET    MOCLDY    43  32  65 NW7       29.67R                  
HOULTON        MOCLDY    41  38  89 W6        29.62R                  
PRESQUE ISLE   FAIR      39  33  79 W14       29.61R                  
FRENCHVILLE    CLOUDY    37  31  78 W10       29.56F                  
CARIBOU        MOCLDY    39  33  79 NW8G18    29.59R                  
$$

NHZ002-005-008-009-011-012-014-180000-
NEW HAMPSHIRE
  
CITY           SKY/WX    TMP DP  RH WIND       PRES   REMARKS
PORTSMOUTH     MOCLDY    47  41  79 W14G20    29.79R                  
ROCHESTER      MOCLDY    44  42  93 CALM      29.79R                  
NASHUA         FAIR      45  41  86 VRB3      29.85R                  
MANCHESTER     FAIR      46  39  76 W8        29.82R                  
CONCORD        FAIR      42  37  82 SW8       29.81R                  
LACONIA        MOCLDY    42  38  85 W8        29.80R                  
PLYMOUTH       MOCLDY    42  36  78 W6        29.80R                  
BERLIN         MOCLDY    40  26  57 NW9G20    29.77R                  
WHITEFIELD     FAIR      41  27  57 W12       29.79R                  
JAFFREY        FAIR      44  38  79 VRB5      29.84R                  
KEENE          FAIR      45  35  68 SW5       29.86R                  
LEBANON        LGT RAIN  45  33  63 W8G21     29.83R                  
MT WASHINGTON  SNOWSHWR  18  18 100 W56G66      N/A  VSB 0   WCI  -7  
$$

VTZ005-007-008-180000-
VERMONT
  
CITY           SKY/WX    TMP DP  RH WIND       PRES   REMARKS
ST JOHNSBURY     N/A     41  27  57 MISG      29.80R                  
MONTPELIER     MOCLDY    38  34  85 W6        29.85R                  
BURLINGTON     CLOUDY    46  28  49 NW13      29.85R                  
$$

MAZ007-012-024-CTZ003-RIZ002-NYZ038-NYZ072-180000-
SOUTHERN NEW ENGLAND AND NY
  
CITY           SKY/WX    TMP DP  RH WIND       PRES   REMARKS
BOSTON         MOCLDY    53  38  56 W18G26    29.85R                  
WORCESTER      FAIR      42  39  89 W10G20    29.86R                  
NANTUCKET      MOCLDY    59  39  47 W18G32    29.83R                  
PROVIDENCE     FAIR      50  39  66 NW17G26   29.89R                  
HARTFORD       FAIR      47  35  63 NW9       29.92R                  
ALBANY         MOCLDY    45  33  63 W22G28    29.96R                  
NEW YORK CITY  MOCLDY    58  39  49 NW22G31   29.96R                  
$$

ANZ081-ANZ082-ANZ150-NHZ014-MEZ023>029-180000-
COASTAL MARINE OBSERVATIONS
  
STATION/POSITION TIME  TEMP    WIND        PRES    WAVE
                       AIR SEA DIR/SP/G            HT/PER
                 (UTC) (F)     (DEG/KT/KT) (MB)    (FT/S)
MOUNT DESERT ROC 2300   49     270/ 19/ 21 1006.1R
MATINICUS ROCK   2200   50     300/ 28/ 32 1004.8R
ISLE OF SHOALS   2200   48     260/ 17/ 19 1007.6R
JEFFREYS LEDGE   2206      56                N/A     5/ 5
$$

.............KEY..............
   WCI - WIND CHILL
   TC  - TEMPERATURE IN CELSIUS
   VSB - VISIBILITY IN MILES
   HX  - HEAT INDEX
   FAIR- INDICATES FEW OR NO CLOUDS BELOW 12,000 FT, WITH NO 
         SIGNIFICANT WEATHER AND/OR OBSTRUCTIONS TO VISIBILITY.